Jaipur, India

5:36 PM IST on September 25, 2017 (GMT +0530)
Jaipur

Weather History for VIJP - February, 2014

Change the Weather History Date:

Friday, February 14, 2014

  Actual Average Record
Temperature  
Mean Temperature 61 °F -  
Max Temperature 71 °F - - ()
Min Temperature 51 °F - - ()
Degree Days  
Heating Degree Days 4    
Growing Degree Days 11 (Base 50)    
Moisture  
Dew Point 48 °F    
Average Humidity 62    
Maximum Humidity 82    
Minimum Humidity 39    
Precipitation  
Precipitation 0.00 in - - ()
Sea Level Pressure  
Sea Level Pressure 29.85 in    
Wind  
Wind Speed 6 mph ()    
Max Wind Speed 10 mph    
Max Gust Speed -    
Visibility 1.4 miles    
Events      
T = Trace of Precipitation, MM = Missing Value Source: Averaged Metar Reports

Daily Weather History Graph

Daily Weather History Graph

Search for Another Location

Airport or City:

Trip Planner

Search our weather history database for the weather conditions in past years. The results will help you decide how hot, cold, wet, or windy it might be!

Date:

Astronomy

Feb. 14, 2014 Rise Set
Actual Time 7:04 AM IST 6:18 PM IST
Civil Twilight 6:40 AM IST 6:41 PM IST
Nautical Twilight 6:13 AM IST 7:09 PM IST
Astronomical Twilight 5:45 AM IST 7:36 PM IST
Moon 5:53 PM IST (2/14) 6:16 AM IST (2/14)
Length of Visible Light 12h 01m
Length of Day
11h 14m
Full, 100% of the Moon is Illuminated
Feb 14
Full
Feb 15
Full
Feb 22
Last Quarter
Mar 1
New
Mar 8
First Quarter

Hourly Weather History & Observations

Time (IST) Temp. Dew Point Humidity Pressure Visibility Wind Dir Wind Speed Gust Speed Precip Events Conditions
2:00 AM 57.2 °F 44.6 °F 63% 29.89 in 1.2 mi East 8.1 mph - N/A   Haze
2:30 AM 55 °F 45 °F 60% 29.88 in 1 mi East 4.6 mph - -   Haze
4:00 AM 53.6 °F 46.4 °F 77% 29.86 in 1.2 mi East 5.8 mph - N/A   Haze
5:00 AM 53.6 °F 46.4 °F 77% 29.86 in 1.2 mi East 10.4 mph - N/A   Haze
5:30 AM 54 °F 47 °F 70% 29.85 in 1 mi East 9.2 mph - -   Mist
6:00 AM 53.6 °F 48.2 °F 82% 29.86 in 1.2 mi East 9.2 mph - N/A   Mostly Cloudy
6:30 AM 53.6 °F 48.2 °F 82% 29.86 in 1.2 mi East 8.1 mph - N/A   Mostly Cloudy
7:00 AM 53.6 °F 48.2 °F 82% 29.86 in 1.2 mi East 8.1 mph - N/A   Mostly Cloudy
8:00 AM 53.6 °F 48.2 °F 82% 29.89 in 0.8 mi East 6.9 mph - N/A   Mostly Cloudy
8:30 AM 54 °F 50 °F 82% 29.89 in 1 mi East 4.6 mph - -   Mist
9:00 AM 55.4 °F 50.0 °F 82% 29.92 in 0.9 mi East 9.2 mph - N/A   Scattered Clouds
10:00 AM 59.0 °F 50.0 °F 72% 29.92 in 1.2 mi East 9.2 mph - N/A   Haze
11:00 AM 60.8 °F 50.0 °F 68% 29.92 in 1.6 mi ESE 9.2 mph - N/A   Haze
11:30 AM 62 °F 53 °F 63% 29.88 in 1 mi SE 4.6 mph - -   Haze
12:00 PM 62.6 °F 51.8 °F 68% 29.89 in 1.9 mi Variable 5.8 mph - N/A   Haze
1:00 PM 64.4 °F 51.8 °F 64% 29.86 in 1.9 mi SE 4.6 mph - N/A   Haze
1:30 PM 66.2 °F 51.8 °F 60% 29.86 in 1.9 mi Variable 3.5 mph - N/A   Haze
2:00 PM 66.2 °F 51.8 °F 60% 29.83 in 1.9 mi Variable 3.5 mph - N/A   Haze
2:30 PM 67 °F 48 °F 40% 29.79 in 1 mi West 5.8 mph - -   Haze
3:00 PM 68.0 °F 51.8 °F 56% 29.80 in 1.9 mi Variable 3.5 mph - N/A   Haze
4:00 PM 68.0 °F 50.0 °F 52% 29.80 in 1.9 mi Variable 3.5 mph - N/A   Haze
5:00 PM 69.8 °F 50.0 °F 49% 29.80 in 1.9 mi SW 5.8 mph - N/A   Haze
5:30 PM 69 °F 51 °F 42% 29.76 in 1 mi WSW 8.1 mph - -   Haze
6:00 PM 68.0 °F 48.2 °F 49% 29.80 in 1.9 mi SW 4.6 mph - N/A   Haze
7:00 PM 64.4 °F 48.2 °F 56% 29.83 in 1.6 mi Variable 2.3 mph - N/A   Haze
8:00 PM 64.4 °F 48.2 °F 56% 29.83 in 1.6 mi SW 5.8 mph - N/A   Haze
8:30 PM 63 °F 48 °F 48% 29.81 in 1 mi West 4.6 mph - -   Smoke
9:00 PM 62.6 °F 44.6 °F 52% 29.86 in 1.6 mi WNW 4.6 mph - N/A   Smoke
10:00 PM 62.6 °F 44.6 °F 52% 29.86 in 1.6 mi NW 4.6 mph - N/A   Smoke
10:30 PM 62.6 °F 44.6 °F 52% 29.89 in 1.6 mi Variable 4.6 mph - N/A   Smoke
11:00 PM 62.6 °F 44.6 °F 52% 29.89 in 1.6 mi NNW 5.8 mph - N/A   Smoke
11:30 PM 62 °F 43 °F 39% 29.84 in 1 mi North 3.5 mph - -   Smoke
11:30 PM 60.8 °F 42.8 °F 52% 29.86 in 1.6 mi NNW 3.5 mph - N/A   Smoke